Language selection

My Weather Profile Weather Topics  | 

Lake of the Woods: Past 24 Hour Conditions

 

Cameron Falls

06:00 PM EST 05 February 2023
Disclaimer

This table is a summary of hourly weather conditions for the past 24 hours.
Please note that these observations might not always be representative of weather conditions over their associated marine area.

Date / Time
(EST)
Wind(knots) Conditions Visibility(km) Pressure(kPa) Air tempC) Relative humidity(%) Dew pointC) Wind Chill
05 February 2023
18:00 calm N/A N/A 101.9 -13 71 -17 *
17:00 NNE 5 N/A N/A 101.9 -12 72 -16 -18
16:00 N 8 N/A N/A 101.8 -12 70 -16 -19
15:00 N 8 N/A N/A 101.7 -12 67 -17 -19
14:00 N 9 N/A N/A 101.7 -12 63 -18 -19
13:00 N 9 N/A N/A 101.7 -12 61 -18 -20
12:00 N 10 N/A N/A 101.7 -12 68 -17 -20
11:00 NNE 10 N/A N/A 101.6 -13 69 -17 -21
10:00 N 6 N/A N/A 101.6 -14 77 -17 -20
9:00 NNW 4 N/A N/A 101.5 -14 81 -16 -18
8:00 NNW 4 N/A N/A 101.5 -14 81 -16 -19
7:00 NNW 3 N/A N/A 101.4 -14 82 -16 -18
6:00 N 4 N/A N/A 101.3 -14 82 -16 -19
5:00 N 4 N/A N/A 101.3 -14 82 -16 -18
4:00 NNW 4 N/A N/A 101.2 -14 79 -17 -18
3:00 NNW 3 N/A N/A 101.2 -14 82 -16 -17
2:00 N 3 N/A N/A 101.2 -14 77 -17 -17
1:00 NNW 2 N/A N/A 101.2 -14 77 -17 -16
0:00 NNW 2 N/A N/A 101.2 -14 79 -16 -16
04 February 2023
23:00 N 4 N/A N/A 101.2 -13 75 -17 -18
22:00 NNW 2 N/A N/A 101.1 -13 75 -16 -16
21:00 N 4 N/A N/A 101.1 -13 76 -16 -17
20:00 NNE 3 N/A N/A 101.1 -12 73 -16 -16
19:00 NE 3 N/A N/A 101.0 -12 74 -16 -16
18:00 N 7 N/A N/A 100.9 -12 73 -16 -18

Zoom-in to make a selection

Map of Great Lakes - Lake Superior marine weather areas Mid Superior - 45001 East Superior - 45004 West Superior - 45006 Slate Island - 45136 Lake Of the Woods - 45148 Kenora Airport Royal Island Armstrong Airport Caribou Island Marathon Airport Pukaskwa National Park Thunder Bay Airport Welcome Island Little Flatland Island Sault Ste. Marie Airport Wawa Airport
Legend:
buoy Buoy
land station Land Station

Great Lakes - Lake Superior Area

Another Region

What we are doing

Date modified: